Location: West Sayville
(40.7279°N, 73.0976°W)
Time: 09:04:08
(UTC+00:00)

Cosmos 1606 Rocket - Pass Details

Date: 29 October 2020
Orbit: 604 x 631 km, 82.5° (Epoch: 23 November)

Event Time Altitude Azimuth Distance (km) Brightness Sun altitude
Rises 22:29:06 0° 196° (SSW) 2,861 7.4 -7.7°
Reaches altitude 10° 22:31:20 10° 201° (SSW) 1,965 6.6 -8.1°
Maximum altitude 22:35:37 57° 280° (W) 733 4.3 -8.9°
Drops below altitude 10° 22:39:58 10° 359° (N) 1,997 6.1 -9.7°
Sets 22:42:15 0° 4° (N) 2,913 6.9 -10.1°
